Tracking 19832 objects as of 25-Aug-2019
HD Live streaming from Space Station
objects crossing your sky now

COSMOS 1771

Track COSMOS 1771 now!
10-day predictions
COSMOS 1771 is classified as:


NORAD ID: 16917
Int'l Code: 1986-062A
Perigee: 929.4 km
Apogee: 994.9 km
Inclination: 65.0 °
Period: 104.2 minutes
Semi major axis: 7333 km
RCS: 2.6102 m2 (large)
Launch date: August 20, 1986
Source: Commonwealth of Independent States (former USSR) (CIS)
Launch site: TYURATAM MISSILE AND SPACE COMPLEX (TTMTR)
aabbcc
Your satellite tracking list
Your tracking list is empty




NASA's NSSDC Master Catalog

Two Line Element Set (TLE):
1 16917U 86062A   19237.48699367 -.00000078  00000-0  95447-5 0  9990
2 16917  64.9822 302.8636 0044615  13.5406 346.6839 13.82505729668072
Source of the keplerian elements: AFSPC